Wind_Speed
27 29 32 34 36 37 38 38 38 36 33 31 28 27 28 29 30 29 30 30 27 24 24 24 26 25 25 26 25 25 25 25 25 24 23 22 21 21 20 20 21 19 21
32 31 34 35 37 37 37 37 36 34 31 29 30 31 31 31 30 32 30 29 26 23 23 26 27 26 24 26 26 27 26 26 25 24 23 21 21 20 20 20 19 18 20
31 32 33 34 35 37 36 36 34 33 32 32 32 33 33 32 32 33 31 28 29 27 27 29 27 26 25 26 25 24 23 22 21 21 21 18 18 19 18 18 18 18 19
32 31 31 33 33 34 34 33 33 32 34 35 34 35 32 31 32 32 31 31 31 32 31 29 27 26 25 25 23 22 20 19 19 19 16 16 17 18 18 17 17 17 17
31 30 29 33 33 34 36 36 36 36 36 34 35 36 33 32 32 31 32 31 30 30 30 29 27 26 23 22 20 19 19 18 17 17 16 15 15 17 17 16 16 17 16
27 33 33 34 36 37 37 38 37 36 36 35 32 36 34 32 32 31 31 32 31 30 29 28 27 25 21 20 19 19 16 15 16 15 15 16 15 16 18 17 17 16 16
19 26 32 33 36 37 39 38 39 37 36 34 34 35 33 32 33 30 29 31 31 31 30 29 26 23 21 19 18 16 14 15 14 14 14 14 14 16 17 17 18 17 17
16 16 15 30 31 23 29 31 38 36 35 33 35 34 34 33 31 30 28 28 29 29 29 27 25 22 20 18 16 15 13 14 14 13 13 12 14 15 16 17 17 16 17
31 32 35 36 43 34 14 22 32 33 31 32 33 33 31 30 29 28 28 27 27 26 25 23 22 20 19 17 14 13 13 13 13 12 11 11 11 12 14 15 15 16 17
25 29 30 34 40 36 18 14 23 29 29 30 31 32 29 27 26 26 25 23 23 23 22 21 20 19 16 14 13 12 12 12 12 10 10 9 9 10 11 13 14 15 16
28 35 40 48 44 43 29 16 17 25 28 28 29 28 27 23 22 20 21 23 23 22 20 19 18 16 14 14 12 11 11 12 10 8 8 9 8 7 8 10 12 14 15
23 26 35 37 39 39 35 29 21 21 26 28 28 26 24 23 20 20 21 20 19 19 19 18 16 14 13 13 12 11 13 11 10 7 5 5 6 4 5 8 10 12 12
22 28 32 41 39 36 34 31 29 27 27 27 25 24 22 22 20 20 20 19 19 17 17 14 13 12 12 11 11 11 11 10 8 6 4 1 3 2 4 6 8 9 10
22 28 27 27 30 33 31 30 30 29 27 26 24 22 22 20 19 19 18 18 16 14 13 11 11 12 10 10 11 11 11 10 10 8 5 2 4 4 4 5 4 6 6
21 20 21 21 24 25 25 26 24 25 26 24 22 20 19 21 20 18 19 17 15 14 13 12 10 9 9 9 9 10 10 11 12 9 8 6 7 7 5 4 3 3 3
23 21 16 16 21 17 16 17 21 22 22 21 20 18 17 18 20 19 19 18 16 15 12 10 9 10 9 9 9 8 9 11 10 10 8 7 8 10 7 4 2 2 2
23 19 16 19 17 13 13 15 17 20 20 20 19 18 18 19 20 21 20 19 17 15 12 11 10 8 8 7 7 6 8 9 7 8 5 5 5 4 2 3 2 3 5
22 20 17 20 18 16 16 15 16 18 20 19 20 21 23 22 22 21 21 19 18 15 12 9 9 9 7 6 5 3 4 3 4 5 7 6 4 1 1 2 4 8 11
24 21 19 20 18 17 17 16 18 19 21 20 19 19 20 22 23 22 22 20 18 15 12 10 9 7 6 4 3 2 4 2 6 4 5 3 5 2 3 7 8 8 9
23 19 17 19 20 18 18 18 20 21 21 21 20 20 19 20 21 23 22 21 19 16 13 11 7 6 5 1 1 3 6 5 8 6 4 4 1 2 6 5 4 7 8
23 23 23 23 24 24 25 22 22 24 23 22 22 19 18 21 22 23 23 22 19 15 12 9 9 6 4 0 1 3 2 6 9 9 9 4 3 4 6 5 7 7 6
28 31 29 28 28 28 27 25 18 20 23 23 23 21 20 22 24 25 24 22 20 16 13 12 9 6 3 1 1 2 2 3 8 11 11 9 6 5 6 7 7 7 7
27 32 31 29 28 28 25 24 22 20 19 21 21 22 22 24 25 25 22 21 20 17 15 13 10 7 5 3 2 2 2 2 4 6 7 7 6 4 5 10 11 11 8
28 26 27 27 27 29 28 26 27 20 19 20 22 22 23 25 24 22 22 21 20 19 15 13 11 8 6 4 3 5 4 4 3 4 5 5 6 7 11 13 12 8 6
24 25 27 26 27 28 32 31 31 24 18 19 23 21 22 24 24 24 22 23 21 18 16 14 11 8 6 5 4 5 5 5 7 7 7 7 8 13 12 11 12 8 6
22 25 28 27 26 27 28 29 28 23 22 20 20 24 24 25 25 24 24 23 22 20 20 17 9 5 6 5 5 5 4 4 5 7 7 11 12 10 8 10 9 7 7
Wind_Direction
161 162 163 158 152 148 145 144 143 142 141 140 137 132 127 121 117 115 113 111 109 109 111 109 104 98 95 94 93 92 90 89 87 81 74 68 62 59 56 59 59 57 58
158 160 163 161 156 151 147 145 143 142 142 140 135 130 123 119 118 116 113 112 109 109 115 113 110 104 99 98 96 91 87 84 81 78 73 65 63 60 57 54 59 54 53
158 158 161 162 159 154 151 149 146 142 140 135 131 126 122 121 120 118 115 111 109 104 110 118 113 106 104 101 95 90 87 83 80 76 72 66 62 61 59 57 57 56 54
159 158 159 161 156 152 149 144 140 135 134 133 130 124 120 120 120 119 116 112 110 107 108 113 113 111 109 104 98 92 87 83 81 75 69 69 61 58 60 61 59 59 56
156 159 161 158 154 149 146 143 140 138 135 131 130 126 123 122 120 121 118 115 116 112 112 115 116 114 111 105 99 95 89 86 80 73 67 66 65 58 57 58 56 58 61
162 162 162 162 159 155 151 146 141 139 136 131 131 127 126 125 123 123 122 120 118 116 116 117 117 114 110 101 96 91 86 80 77 74 70 65 64 61 58 56 58 54 54
139 167 164 169 162 157 153 147 142 139 132 133 134 129 130 130 127 126 125 123 120 119 118 118 117 115 108 101 96 88 84 77 77 71 68 68 66 65 63 58 57 55 56
117 125 160 171 149 139 126 132 137 134 133 139 135 137 135 134 132 131 128 124 121 119 117 116 114 110 105 100 96 92 86 81 79 74 71 68 74 67 64 59 57 57 57
100 116 90 78 97 102 110 131 131 131 137 137 139 138 138 135 132 132 130 127 124 121 120 119 113 109 105 98 92 89 87 81 77 75 69 67 71 70 66 64 60 62 55
134 125 126 122 110 114 121 133 124 133 138 144 140 137 137 136 133 133 130 130 132 128 124 116 113 107 98 95 93 82 79 77 77 76 67 70 76 70 70 68 64 63 59
118 129 131 130 128 130 135 130 140 140 139 143 136 140 140 137 137 136 131 132 130 127 125 119 111 100 101 97 87 79 66 71 70 70 60 81 70 66 69 70 66 62 58
122 129 132 133 137 146 147 143 140 149 151 145 145 144 144 145 146 142 140 141 134 132 125 115 104 106 102 96 86 70 71 75 71 69 62 88 63 67 70 72 67 61 54
136 137 136 136 139 136 140 154 167 162 152 150 149 150 149 151 151 149 145 144 143 138 122 114 109 98 89 80 73 70 66 61 54 43 37 71 103 122 94 69 69 58 55
148 151 152 155 155 159 162 167 164 158 156 156 159 158 159 159 161 158 154 154 146 137 129 125 110 93 83 73 70 61 52 47 34 22 13 56 123 134 112 74 72 61 57
154 158 156 157 163 165 165 166 161 161 161 164 164 166 170 170 171 171 165 161 155 152 143 124 108 101 88 78 70 52 42 35 27 35 52 85 123 124 127 95 72 68 33
160 168 176 175 174 159 159 163 167 165 166 171 172 172 175 183 179 176 171 165 162 157 138 129 118 104 93 82 65 56 41 24 33 56 69 89 141 138 112 95 74 26 347
171 175 189 183 174 179 175 178 179 174 175 180 183 188 194 195 194 187 179 173 168 155 144 134 117 99 98 90 74 64 27 20 65 56 74 111 124 169 198 100 73 358 324
180 190 196 198 199 199 192 191 191 189 190 192 198 209 214 208 205 193 185 177 169 159 149 143 128 122 111 90 67 69 10 26 128 75 107 116 110 141 273 278 292 293 292
198 197 198 206 211 205 200 201 202 201 200 202 209 217 214 207 206 195 187 179 172 167 163 156 150 126 114 94 51 223 256 230 184 152 147 112 336 281 277 299 302 304 294
198 207 209 215 215 211 207 206 206 207 207 210 214 219 213 210 198 192 187 183 180 178 171 163 146 131 124 110 295 257 256 231 203 197 197 319 270 246 315 306 316 316 291
201 208 214 214 212 207 202 197 201 202 204 210 216 218 214 202 196 193 193 189 186 183 174 166 158 150 145 335 253 310 260 230 208 215 219 304 249 277 310 302 305 307 298
200 204 208 211 212 207 205 205 202 204 210 214 215 212 211 207 199 201 199 192 189 181 177 179 176 157 154 179 23 301 234 225 225 238 243 265 257 252 317 329 327 314 301
205 204 206 208 210 207 203 206 205 209 217 214 212 207 206 206 204 203 201 197 190 187 186 186 182 170 165 205 219 273 281 273 285 234 228 248 252 275 314 318 315 306 289
214 213 212 212 214 214 214 210 208 204 205 212 211 207 208 207 206 205 201 197 193 193 191 186 184 184 172 185 210 204 229 257 293 287 253 249 250 286 306 312 322 318 299
212 212 214 213 214 216 217 215 212 213 213 222 216 208 208 209 206 202 200 196 198 199 195 187 183 188 191 157 197 200 220 237 245 259 291 280 277 288 289 300 313 308 305
206 207 212 212 215 215 213 213 217 218 220 215 204 204 209 209 205 203 201 203 202 198 186 177 174 215 224 200 211 223 227 258 275 269 276 285 291 302 298 298 299 296 294
Height
797 802 806 808 810 812 813 816 819 822 825 829 832 835 836 840 841 847 846 847 848 851 852 855 858 860 860 860 861 861 862 863 861 861 861 861 861 860 859 857 857 856 856
795 801 805 809 811 813 815 818 820 823 827 831 832 835 838 843 846 846 849 848 850 852 854 856 859 861 863 863 865 864 865 865 865 863 864 865 864 864 862 862 860 859 858
798 801 806 809 812 814 817 818 822 825 829 832 834 838 841 846 849 849 849 852 852 853 856 857 862 862 865 865 866 866 868 868 867 866 868 868 868 867 866 865 864 864 862
798 803 808 812 814 816 818 820 823 827 831 833 837 841 845 849 851 852 853 855 855 856 858 861 863 863 868 867 869 869 870 870 870 869 871 871 872 871 869 868 867 865 865
798 803 809 814 817 818 820 821 824 827 830 836 839 842 848 852 854 856 855 857 859 859 859 862 865 866 870 870 871 871 871 872 873 873 873 873 873 872 872 871 870 867 866
796 801 807 812 814 817 819 820 823 827 831 836 844 844 849 854 856 858 859 859 860 860 862 864 868 869 873 874 874 874 875 874 874 874 875 876 875 874 873 873 871 871 869
782 804 808 812 814 818 818 819 821 829 832 839 846 846 851 856 858 861 863 863 863 863 864 867 869 872 873 875 875 875 877 875 877 876 877 876 877 876 875 875 873 874 872
802 806 813 813 817 825 821 825 824 829 833 843 845 850 854 859 860 862 866 866 866 867 869 871 872 874 875 876 878 877 879 876 877 877 878 879 878 878 877 876 875 875 873
806 807 807 820 811 827 839 838 831 833 840 844 848 851 858 861 863 866 867 869 869 871 871 874 873 875 877 878 879 879 879 879 878 879 880 879 881 880 878 877 878 875 876
808 808 814 807 816 830 844 846 841 839 845 848 850 853 859 863 867 869 870 872 873 873 876 876 876 876 879 878 879 880 879 879 879 880 880 880 881 881 880 879 879 878 877
811 812 814 813 818 827 838 840 849 848 847 853 853 858 861 865 868 871 871 875 876 876 876 877 876 876 880 881 881 880 879 878 881 881 882 881 881 882 882 880 879 879 878
813 817 817 819 822 829 834 841 848 845 851 852 855 859 862 865 869 871 872 875 875 878 878 878 879 880 879 880 881 880 880 880 882 882 883 881 881 883 884 881 880 880 880
815 818 821 824 829 831 835 844 847 850 851 854 856 860 863 866 871 873 875 876 878 877 877 879 879 880 881 881 881 880 880 881 883 883 883 880 880 884 883 882 881 882 882
819 821 823 827 829 833 837 842 846 847 850 853 856 859 863 867 872 874 875 877 877 878 878 881 880 879 881 880 882 882 883 882 882 882 882 878 879 883 883 883 883 883 884
821 823 826 829 832 837 840 843 844 847 849 854 857 861 864 866 870 874 874 876 876 878 878 878 880 881 881 881 882 883 884 883 881 881 880 877 880 882 883 883 884 883 884
823 826 828 832 835 836 839 842 845 847 851 855 858 861 865 868 870 872 874 874 875 878 877 879 881 879 882 882 882 883 884 882 883 881 880 880 881 881 882 883 883 883 883
823 826 828 831 832 834 838 842 845 847 851 855 858 861 865 868 869 870 871 873 875 876 878 879 879 881 882 883 883 883 883 883 883 882 880 881 882 882 882 882 881 881 881
823 825 829 831 833 836 838 841 844 847 852 854 857 861 863 865 865 867 870 872 874 875 875 879 879 880 883 883 883 883 884 884 884 883 882 882 883 883 882 881 879 878 877
821 825 827 830 833 835 838 841 844 848 852 854 856 858 859 861 864 865 867 869 872 875 875 877 880 878 880 882 882 882 883 884 883 883 883 882 881 881 881 879 877 876 874
821 824 826 828 830 832 837 841 844 848 849 852 853 856 857 859 861 864 865 867 870 871 873 876 878 878 880 881 881 881 881 880 881 882 883 882 881 880 878 876 874 873 871
817 820 822 824 828 831 836 839 841 844 845 849 851 852 855 857 859 861 864 865 868 870 872 875 877 878 879 880 881 880 879 879 879 880 880 880 879 878 876 873 871 870 869
809 813 817 820 824 827 831 834 836 839 842 845 848 850 852 854 857 860 862 863 866 868 871 875 876 877 879 880 878 879 875 878 879 878 877 877 876 875 874 871 869 867 866
804 805 809 814 819 824 827 830 832 836 840 842 844 847 849 853 855 858 859 861 864 867 869 871 872 874 876 877 878 879 875 872 875 874 873 873 873 872 870 869 867 865 863
796 801 805 810 814 818 821 825 827 831 834 836 840 844 847 850 852 854 857 859 862 865 867 868 870 872 872 875 877 875 876 876 873 869 871 870 870 869 869 868 865 862 860
794 797 802 806 809 812 816 821 824 828 832 832 837 841 845 848 850 851 853 856 859 862 864 867 870 871 871 869 873 872 872 871 871 870 864 867 868 867 866 866 863 861 859
787 791 796 800 803 807 812 817 821 825 828 830 834 838 841 844 846 848 850 853 855 858 859 861 865 869 869 867 867 868 868 869 868 868 866 865 864 864 865 864 862 860 858